Weather History for Moorhead, MN

Change the Weather History Date:

Tuesday, January 3, 2012

  Actual Average (KFAR) Record (KFAR)
Temperature  
Mean Temperature 24 °F 10 °F  
Max Temperature 37 °F 18 °F 40 °F (1927)
Min Temperature 10 °F 1 °F -35 °F (1919)
Degree Days  
Heating Degree Days 42 55  
Month to date heating degree days 165  
Since 1 July heating degree days 3705  
Cooling Degree Days 0 0  
Month to date cooling degree days 0  
Year to date cooling degree days 0  
Moisture  
Dew Point 17 °F    
Average Humidity 80    
Maximum Humidity 92    
Minimum Humidity 73    
Precipitation  
Precipitation 0.00 in 0.03 in 0.28 in (2009)
Month to date precipitation 0.08  
Year to date precipitation 0.08  
Snow  
Snow 0.00 in 0.40 in 2.80 in (2009)
Month to date snowfall 1.2  
Since 1 July snowfall 21.0  
Snow Depth -    
Sea Level Pressure  
Sea Level Pressure 29.91 in    
Wind  
Wind Speed 14 mph (South)    
Max Wind Speed 22 mph    
Max Gust Speed 31 mph    
Visibility 10 miles    
Events      
T = Trace of Precipitation, MM = Missing Value Source: NWS Daily Summary

Daily Weather History Graph

Daily Weather History Graph

Search for Another Location

Airport:

Trip Planner

Search our weather history database for the weather conditions in past years. The results will help you decide how hot, cold, wet, or windy it might be!

Date:

Astronomy

Jan. 03, 2012 Rise Set
Actual Time 8:11 AM CST 4:50 PM CST
Civil Twilight 7:36 AM CST 5:25 PM CST
Nautical Twilight 6:58 AM CST 6:03 PM CST
Astronomical Twilight 6:21 AM CST 6:40 PM CST
Moon 12:44 PM CST (1/3) 2:57 AM CST (1/3)
Length of Visible Light 9h 48m
Length of Day
8h 38m
Waxing Gibbous, 73% of the Moon is Illuminated
Jan 3
Waxing Gibbous
Jan 9
Full
Jan 16
Last Quarter
Jan 23
New
Jan 30
First Quarter

Hourly Weather History & Observations

Time (CST) Temp. Windchill Dew Point Humidity Pressure Visibility Wind Dir Wind Speed Gust Speed Precip Events Conditions
12:14 AM 10.4 °F -3.3 °F 6.8 °F 85% 30.28 in 10.0 mi SSE 10.4 mph - N/A   Clear
12:35 AM 10.4 °F -4.1 °F 6.8 °F 85% 30.26 in 10.0 mi SSE 11.5 mph - N/A   Clear
12:54 AM 10.4 °F -4.8 °F 6.8 °F 85% 30.24 in 10.0 mi SSE 12.7 mph - N/A   Clear
1:15 AM 10.4 °F -5.4 °F 8.6 °F 92% 30.22 in 10.0 mi SSE 13.8 mph - N/A   Clear
1:34 AM 10.4 °F -6.0 °F 8.6 °F 92% 30.22 in 10.0 mi South 15.0 mph - N/A   Clear
1:54 AM 12.2 °F -4.8 °F 8.6 °F 85% 30.20 in 10.0 mi SSE 17.3 mph - N/A   Clear
2:14 AM 12.2 °F -4.8 °F 8.6 °F 85% 30.17 in 10.0 mi SSE 17.3 mph - N/A   Clear
2:34 AM 12.2 °F -5.8 °F 8.6 °F 85% 30.15 in 10.0 mi SSE 19.6 mph 25.3 mph N/A   Clear
2:54 AM 12.2 °F -5.8 °F 8.6 °F 85% 30.13 in 10.0 mi SSE 19.6 mph 25.3 mph N/A   Clear
3:15 AM 14.0 °F -2.5 °F 8.6 °F 79% 30.12 in 10.0 mi South 17.3 mph - N/A   Clear
3:34 AM 14.0 °F -3.4 °F 8.6 °F 79% 30.10 in 10.0 mi South 19.6 mph 26.5 mph N/A   Clear
4:14 AM 14.0 °F -3.4 °F 8.6 °F 79% 30.06 in 10.0 mi South 19.6 mph 26.5 mph N/A   Clear
4:34 AM 14.0 °F -3.9 °F 8.6 °F 79% 30.03 in 10.0 mi South 20.7 mph - N/A   Clear
4:54 AM 14.0 °F -4.3 °F 8.6 °F 79% 30.01 in 10.0 mi South 21.9 mph 28.8 mph N/A   Clear
5:15 AM 15.8 °F -1.5 °F 8.6 °F 73% 30.00 in 10.0 mi South 20.7 mph 27.6 mph N/A   Clear
5:34 AM 15.8 °F -1.9 °F 10.4 °F 79% 29.98 in 10.0 mi South 21.9 mph 28.8 mph N/A   Clear
6:14 AM 15.8 °F -1.5 °F 10.4 °F 79% 29.96 in 10.0 mi South 20.7 mph 31.1 mph N/A   Clear
6:54 AM 17.6 °F 2.7 °F 10.4 °F 73% 29.94 in 10.0 mi South 16.1 mph 25.3 mph N/A   Clear
7:14 AM 17.6 °F 0.9 °F 10.4 °F 73% 29.92 in 10.0 mi South 20.7 mph 27.6 mph N/A   Clear
7:35 AM 17.6 °F 1.7 °F 10.4 °F 73% 29.90 in 10.0 mi South 18.4 mph 25.3 mph N/A   Clear
7:54 AM 17.6 °F 3.2 °F 10.4 °F 73% 29.90 in 10.0 mi South 15.0 mph 24.2 mph N/A   Clear
8:14 AM 17.6 °F 3.7 °F 10.4 °F 73% 29.90 in 10.0 mi South 13.8 mph 21.9 mph N/A   Clear
8:35 AM 17.6 °F 2.7 °F 10.4 °F 73% 29.89 in 10.0 mi South 16.1 mph 24.2 mph N/A   Clear
8:54 AM 17.6 °F 4.3 °F 10.4 °F 73% 29.88 in 10.0 mi South 12.7 mph 20.7 mph N/A   Clear
9:14 AM 17.6 °F 4.3 °F 12.2 °F 79% 29.87 in 10.0 mi South 12.7 mph 20.7 mph N/A   Clear
9:35 AM 17.6 °F 4.3 °F 12.2 °F 79% 29.87 in 10.0 mi South 12.7 mph 20.7 mph N/A   Clear
9:54 AM 17.6 °F 3.2 °F 12.2 °F 79% 29.87 in 10.0 mi South 15.0 mph 19.6 mph N/A   Clear
10:14 AM 17.6 °F 4.3 °F 12.2 °F 79% 29.87 in 10.0 mi South 12.7 mph 18.4 mph N/A   Clear
10:35 AM 19.4 °F 4.5 °F 12.2 °F 74% 29.86 in 10.0 mi South 17.3 mph - N/A   Clear
10:54 AM 19.4 °F 4.5 °F 14.0 °F 80% 29.84 in 10.0 mi South 17.3 mph 24.2 mph N/A   Clear
11:14 AM 21.2 °F 8.3 °F 15.8 °F 80% 29.83 in 10.0 mi South 13.8 mph 23.0 mph N/A   Clear
11:34 AM 21.2 °F 8.3 °F 15.8 °F 80% 29.82 in 10.0 mi South 13.8 mph 21.9 mph N/A   Clear
11:54 AM 23.0 °F 10.6 °F 15.8 °F 74% 29.81 in 10.0 mi South 13.8 mph 21.9 mph N/A   Clear
12:14 PM 24.8 °F - 17.6 °F 74% 29.78 in 10.0 mi North - - N/A   Clear
12:33 PM 24.8 °F 14.6 °F 19.4 °F 80% 29.79 in 10.0 mi South 10.4 mph 16.1 mph N/A   Clear
12:54 PM 26.6 °F 16.8 °F 19.4 °F 74% 29.78 in 10.0 mi South 10.4 mph 18.4 mph N/A   Clear
1:14 PM 26.6 °F 17.5 °F 19.4 °F 74% 29.78 in 10.0 mi South 9.2 mph - N/A   Clear
1:34 PM 28.4 °F 18.0 °F 21.2 °F 74% 29.76 in 10.0 mi South 12.7 mph 18.4 mph N/A   Clear
1:54 PM 28.4 °F 18.5 °F 21.2 °F 74% 29.75 in 10.0 mi South 11.5 mph 20.7 mph N/A   Clear
2:14 PM 28.4 °F 18.0 °F 23.0 °F 80% 29.74 in 10.0 mi South 12.7 mph 19.6 mph N/A   Clear
2:34 PM 30.2 °F 20.8 °F 23.0 °F 75% 29.74 in 10.0 mi South 11.5 mph 17.3 mph N/A   Clear
2:54 PM 30.2 °F 20.8 °F 24.8 °F 80% 29.73 in 10.0 mi South 11.5 mph - N/A   Clear
3:14 PM 32.0 °F 24.2 °F 24.8 °F 75% 29.74 in 10.0 mi South 9.2 mph - N/A   Clear
3:34 PM 32.0 °F 24.2 °F 24.8 °F 75% 29.74 in 10.0 mi South 9.2 mph - N/A   Clear
3:54 PM 32.0 °F 24.8 °F 24.8 °F 75% 29.74 in 10.0 mi South 8.1 mph - N/A   Clear
4:14 PM 32.0 °F 26.4 °F 24.8 °F 75% 29.74 in 10.0 mi South 5.8 mph - N/A   Clear
4:34 PM 30.2 °F 22.6 °F 24.8 °F 80% 29.74 in 10.0 mi South 8.1 mph - N/A   Clear
4:54 PM 30.2 °F 22.6 °F 24.8 °F 80% 29.75 in 10.0 mi South 8.1 mph - N/A   Clear
5:14 PM 30.2 °F 24.3 °F 24.8 °F 80% 29.76 in 10.0 mi South 5.8 mph - N/A   Clear
5:34 PM 28.4 °F - 24.8 °F 86% 29.77 in 10.0 mi Calm Calm - N/A   Clear
5:54 PM 30.2 °F 25.4 °F 24.8 °F 80% 29.78 in 10.0 mi South 4.6 mph - N/A   Clear
6:14 PM 28.4 °F 23.3 °F 24.8 °F 86% 29.78 in 10.0 mi SSW 4.6 mph - N/A   Clear
6:34 PM 28.4 °F 23.3 °F 24.8 °F 86% 29.79 in 10.0 mi SSW 4.6 mph - N/A   Clear
6:54 PM 30.2 °F 24.3 °F 26.6 °F 86% 29.81 in 10.0 mi WSW 5.8 mph - N/A   Clear
7:14 PM 28.4 °F 21.2 °F 24.8 °F 86% 29.83 in 10.0 mi WNW 6.9 mph - N/A   Clear
7:34 PM 35.6 °F 25.5 °F 32.0 °F 87% 29.84 in 10.0 mi NNW 17.3 mph - N/A   Clear
7:54 PM 37.4 °F 26.9 °F 33.8 °F 87% 29.86 in 10.0 mi NNW 20.7 mph 25.3 mph N/A   Clear
8:14 PM 37.4 °F 28.5 °F 33.8 °F 87% 29.89 in 10.0 mi North 15.0 mph - N/A   Clear
8:34 PM 35.6 °F 28.0 °F 32.0 °F 87% 29.90 in 10.0 mi NNW 10.4 mph - N/A   Clear
8:54 PM 33.8 °F 27.0 °F 30.2 °F 87% 29.90 in 10.0 mi North 8.1 mph - N/A   Clear
9:14 PM 30.2 °F 22.6 °F 28.4 °F 93% 29.91 in 10.0 mi NNW 8.1 mph - N/A   Clear
9:54 PM 28.4 °F 19.7 °F 26.6 °F 93% 29.93 in 10.0 mi NNW 9.2 mph - N/A   Clear
10:14 PM 28.4 °F 24.6 °F 26.6 °F 93% 29.93 in 10.0 mi NW 3.5 mph - N/A   Clear
10:35 PM 26.6 °F 19.1 °F 26.6 °F 100% 29.95 in 10.0 mi NNW 6.9 mph - N/A   Clear
10:54 PM 28.4 °F 20.4 °F 26.6 °F 93% 29.97 in 10.0 mi NNW 8.1 mph - N/A   Clear
11:14 PM 30.2 °F 20.8 °F 28.4 °F 93% 29.98 in 10.0 mi NW 11.5 mph - N/A   Clear
11:34 PM 30.2 °F 21.3 °F 26.6 °F 86% 29.97 in 10.0 mi NNW 10.4 mph - N/A   Clear
11:54 PM 30.2 °F 20.8 °F 26.6 °F 86% 29.99 in 10.0 mi NNW 11.5 mph - N/A   Clear